sat.trackr.live / text

‹ back to catalog

STARLINK-4013

NORAD 52604 · 2022-052G

PAYLOAD ACTIVE UNKNOWN

§ Identity

Operator
Country
US
Launch date
2022-05-14
Launch site
AFETR
Launch vehicle
Mass (kg)
RCS (m²)

Purposes: comms

External: N2YO · Heavens-Above · Gunter

§ Orbital elements

Epoch: 2026-05-24T19:57:55.104192Z

Period
95.44 min
Inclination
53.2141°
Eccentricity
0.0001482
Mean motion
15.08840124 rev/d
Perigee alt
538.7 km
Apogee alt
540.8 km
Semi-major
6,917.9 km
B*
-4.5081e-5
RAAN
297.3016°
Arg perigee
89.6245°
Mean anomaly
270.4917°
Rev number
22,235

§ Raw data

STARLINK-40131 52604U 22052G   26144.83188778 -.00001005  00000+0 -45081-4 0  99942 52604  53.2141 297.3016 0001482  89.6245 270.4917 15.08840124222359

JSON: /api/v1/satellites/52604 · /tle

For live sub-satellite position, see the globe view (requires WebGL).

§ Visibility from observer

Set your observer location to see the next 7 days of passes ≥ 10°. The values pass through the URL so the page stays shareable.

No JS? Fill the form by hand. The geolocation button needs JavaScript.